Fulton, NY
on Wednesday, December 6, 2017

Wednesday
       
Previous Day Next Day
Daily Summary
 ActualAverage (KSYR)Record (KSYR)
Temperature
Mean Temperature °F °C °F °C  
Max Temperature 39°F 4°C 41°F 5°C 72°F 22°C (2001)
Min Temperature 35°F 2°C 25°F -3°C 2°F -16°C (1940)
Degree Days
Heating Degree Days 28    
Moisture
Dew Point 21°F -6°C   
Average Humidity 54    
Maximum Humidity 65    
Minimum Humidity 44    
Precipitation
Precipitation 0.00 in / 0.00 cm in / cm in / cm ()
Wind
Wind Speed 14 mph / 23 km/h   
Max Wind Speed 28 mph / 45 km/h   
Max Gust Speed 40 mph / 64 km/h   
Visibility 10 miles / 16 kilometers   
Events Snow   
Averages and records for this station are not official NWS values.
Key: T is trace of precipitation, MM is missing value
Source: NWS Daily Summary
Seasonal Weather Averages
Time(EST)TemperatureDew PointHumidity Pressure Visibility Wind DirectionWind SpeedGust SpeedPrecipitationEvents Conditions
12:54 AM 37.0°F 2.8°C 21.9°F -5.6°C 54% 29.85 in / 1010.6 hPa 10.0 miles / 16.1 kilometers West 27.6 mph / 44.4 km/h 40.3 mph / 64.8 km/h N/A   Partly Cloudy
1:54 AM 37.0°F 2.8°C 21.0°F -6.1°C 52% 29.88 in / 1011.7 hPa 10.0 miles / 16.1 kilometers WSW 6.9 mph / 11.1 km/h - N/A   Overcast
2:54 AM 36.0°F 2.2°C 23.0°F -5.0°C 59% 29.89 in / 1012.0 hPa 10.0 miles / 16.1 kilometers West 9.2 mph / 14.8 km/h - N/A   Overcast
3:54 AM 35.1°F 1.7°C 23.0°F -5.0°C 61% 29.89 in / 1012.1 hPa 10.0 miles / 16.1 kilometers West 9.2 mph / 14.8 km/h - N/A   Overcast
4:54 AM 35.1°F 1.7°C 23.0°F -5.0°C 61% 29.89 in / 1012.0 hPa 10.0 miles / 16.1 kilometers SW 4.6 mph / 7.4 km/h - N/A   Overcast
5:54 AM 36.0°F 2.2°C 21.0°F -6.1°C 55% 29.90 in / 1012.3 hPa 10.0 miles / 16.1 kilometers SW 10.4 mph / 16.7 km/h 19.6 mph / 31.5 km/h N/A   Overcast
6:54 AM 36.0°F 2.2°C 19.9°F -6.7°C 52% 29.90 in / 1012.5 hPa 10.0 miles / 16.1 kilometers SSW 11.5 mph / 18.5 km/h - N/A   Overcast
7:54 AM 35.1°F 1.7°C 19.9°F -6.7°C 54% 29.92 in / 1013.0 hPa 10.0 miles / 16.1 kilometers SSW 6.9 mph / 11.1 km/h - N/A   Overcast
8:54 AM 36.0°F 2.2°C 19.0°F -7.2°C 50% 29.92 in / 1013.0 hPa 10.0 miles / 16.1 kilometers SW 15.0 mph / 24.1 km/h 26.5 mph / 42.6 km/h N/A   Mostly Cloudy
9:54 AM 36.0°F 2.2°C 19.0°F -7.2°C 50% 29.92 in / 1013.2 hPa 10.0 miles / 16.1 kilometers SSW 15.0 mph / 24.1 km/h 21.9 mph / 35.2 km/h N/A   Overcast
10:54 AM 37.0°F 2.8°C 18.0°F -7.8°C 46% 29.91 in / 1012.7 hPa 10.0 miles / 16.1 kilometers SW 15.0 mph / 24.1 km/h 26.5 mph / 42.6 km/h N/A   Overcast
11:54 AM 37.0°F 2.8°C 18.0°F -7.8°C 46% 29.89 in / 1012.2 hPa 10.0 miles / 16.1 kilometers SW 15.0 mph / 24.1 km/h 20.7 mph / 33.3 km/h N/A   Overcast
12:54 PM 37.0°F 2.8°C 17.1°F -8.3°C 44% 29.87 in / 1011.4 hPa 10.0 miles / 16.1 kilometers SW 16.1 mph / 25.9 km/h 21.9 mph / 35.2 km/h N/A   Overcast
1:54 PM 37.0°F 2.8°C 17.1°F -8.3°C 44% 29.87 in / 1011.3 hPa 10.0 miles / 16.1 kilometers SW 16.1 mph / 25.9 km/h 25.3 mph / 40.7 km/h N/A   Overcast
2:54 PM 37.9°F 3.3°C 19.0°F -7.2°C 47% 29.87 in / 1011.3 hPa 10.0 miles / 16.1 kilometers SW 11.5 mph / 18.5 km/h 20.7 mph / 33.3 km/h N/A   Overcast
3:54 PM 37.9°F 3.3°C 21.9°F -5.6°C 53% 29.87 in / 1011.5 hPa 10.0 miles / 16.1 kilometers SW 10.4 mph / 16.7 km/h - N/A   Overcast
4:54 PM 37.9°F 3.3°C 21.9°F -5.6°C 53% 29.86 in / 1011.2 hPa 10.0 miles / 16.1 kilometers SSW 5.8 mph / 9.3 km/h - N/A   Overcast
5:54 PM 39.0°F 3.9°C 23.0°F -5.0°C 53% 29.86 in / 1011.1 hPa 10.0 miles / 16.1 kilometers SW 9.2 mph / 14.8 km/h - N/A   Overcast
6:54 PM 39.0°F 3.9°C 23.0°F -5.0°C 53% 29.86 in / 1011.2 hPa 10.0 miles / 16.1 kilometers WSW 12.7 mph / 20.4 km/h 24.2 mph / 38.9 km/h 0.00 in / 0.0 cm   Overcast
7:54 PM 39.0°F 3.9°C 23.0°F -5.0°C 53% 29.86 in / 1011.0 hPa 10.0 miles / 16.1 kilometers WSW 8.1 mph / 13.0 km/h - N/A   Overcast
8:54 PM 37.9°F 3.3°C 24.1°F -4.4°C 57% 29.87 in / 1011.4 hPa 9.0 miles / 14.5 kilometers WSW 8.1 mph / 13.0 km/h - 0.00 in / 0.0 cm Snow Light Snow
9:54 PM 37.0°F 2.8°C 26.1°F -3.3°C 65% 29.87 in / 1011.5 hPa 10.0 miles / 16.1 kilometers WSW 11.5 mph / 18.5 km/h - 0.00 in / 0.0 cm   Overcast
10:54 PM 37.0°F 2.8°C 25.0°F -3.9°C 62% 29.88 in / 1011.7 hPa 10.0 miles / 16.1 kilometers WSW 12.7 mph / 20.4 km/h - N/A   Overcast
11:54 PM 36.0°F 2.2°C 25.0°F -3.9°C 64% 29.88 in / 1011.9 hPa 10.0 miles / 16.1 kilometers WSW 15.0 mph / 24.1 km/h - N/A   Overcast